Terminal Aerodrome Forecast
Issued by NWS Corpus Christi, TX

Home | Current Version | Previous Version | Text Only | Print | Product List | Glossary On
Versions: 1 2 3 4 5 6 7 8 9 10 11 12 13 14 15 16 17 18 19 20
000
FTUS44 KCRP 250537
TAFVCT
TAF
KVCT 250537Z 2506/2606 13007KT P6SM SCT018 BKN050
     FM251000 13007KT P6SM BKN015
     FM251500 15016KT P6SM VCTS SCT018CB BKN040
      TEMPO 2517/2521 VRB20G30KT 3SM TSRA BR BKN024CB
     FM252100 15020G27KT 6SM -TSRA BR SCT025CB BKN050
      TEMPO 2521/2601 VRB30G40KT 1SM +TSRA BR BKN024CB
     FM260100 15010KT P6SM VCTS SCT025CB OVC070
      TEMPO 2601/2604 VRB20G30KT 3SM TSRA BR BKN015CB=

USA.gov is the U.S. government's official web portal to all federal, state and local government web resources and services.